Regional Weather Roundup
Issued by NWS Sterling, VA

Home | Current Version | Previous Version | Text Only | Print | Product List | Glossary Off
Versions: 1 2 3 4 5 6 7 8 9 10 11 12 13 14 15 16 17 18 19 20 21 22 23 24 25 26 27

000
ASUS41 KLWX 230211
RWRLWX

REGIONAL WEATHER ROUNDUP
NATIONAL WEATHER SERVICE BALTIMORE MD/WASHINGTON DC
900 PM EST MON JAN 22 2018

Note: "FAIR" indicates few or no clouds below 12,000 feet
with no significant weather and/or obstructions to visibility.
 TC=TEMPERATURE CELSIUS

 * =Non NWS site. Station does not report precipitation (e.g. rain,
    snow, etc.), thunder, or fog.

DCZ001-MDZ009-015-VAZ040>042-051-053>054-230300-
WASHINGTON METRO

CITY           SKY/WX    TMP DP  RH WIND       PRES   REMARKS
WASHINGTON NAT MOCLDY    53  43  68 S7        29.98F
DULLES         MOCLDY    55  43  63 SE8       29.97F
ANDREWS AFB    FAIR      53  43  67 SE9       29.97F
FT BELVOIR     FAIR      54  42  64 SE3       29.98F
QUANTICO       MOCLDY    51  42  71 SW12      30.00F
COLLEGE PARK*  FAIR      55  42  60 SE5       29.97F
LEESBURG*      FAIR      57  45  62 S12       29.97F
MANASSAS*      FAIR      52  42  69 S7        29.98F
GAITHERSBURG*  FAIR      55  43  63 S10       29.98F

$$

MDZ006>007-011-014-230300-
BALTIMORE METRO

CITY           SKY/WX    TMP DP  RH WIND       PRES   REMARKS
BWI AIRPORT    MOCLDY    51  42  71 SE5       29.98F
MD SCIENCE CTR   N/A     51  41  68 MISG      30.00F
MARTIN STATE   CLEAR     48  43  81 SE8       30.02F
ANNAPOLIS      FAIR      46  40  79 SE6       30.01F
FORT MEADE*    FAIR      48  41  76 SE5       30.01F

$$

MDZ012-015-019>023-230300-
MARYLAND EASTERN SHORE

CITY           SKY/WX    TMP DP  RH WIND       PRES   REMARKS
OCEAN CITY     FAIR      45  41  86 SW6       30.08F
SALISBURY      FAIR      51  41  68 S10       30.04F
BAY BRIDGE AP* FAIR      46  39  76 S10       30.02F
CAMBRIDGE*     CLEAR     52  41  66 S9G20     30.04R
EASTON*        MOCLDY    54  41  62 S9        30.07F

$$

MDZ017>025-230300-
SOUTHERN MARYLAND

CITY           SKY/WX    TMP DP  RH WIND       PRES   REMARKS
PATUXENT RIVER NOT AVBL
ST INIGOES     FAIR      50  41  71 E5        30.02F
LEONARDTOWN*   FAIR      52  41  66 SE5       30.03F

$$

MDZ003>005-230300-
NORTH CENTRAL MARYLAND

CITY           SKY/WX    TMP DP  RH WIND       PRES   REMARKS
FREDERICK*     FAIR      57  39  51 S9        29.98F
HAGERSTOWN APT FAIR      56  42  59 S13       29.92F
WESTMINSTER*   FAIR      52  45  76 SE10      29.96F

$$

MDZ501>502-230300-
WESTERN MARYLAND

CITY           SKY/WX    TMP DP  RH WIND       PRES   REMARKS
OAKLAND*       FAIR      50  36  57 S12       29.86F
CUMBERLAND*    FAIR      54  41  62 SW3       29.92S

$$

VAZ025>031-230300-
SHENANDOAH VALLEY

CITY           SKY/WX    TMP DP  RH WIND       PRES   REMARKS
WINCHESTER*    FAIR      54  41  62 S10       29.96R
FRONT ROYAL*   FAIR      57  41  54 SE5       29.94R
LURAY*         FAIR      55  41  58 SW7       29.94F
NEW MARKET*    FAIR      54  39  56 SW6       29.94R
STAUNTON*      MOCLDY    53  40  62 S8        29.97F
WAYNESBORO*    CLOUDY    54  41  62 SE8       29.97S

$$

WVZ021-048>050-054>055-230300-
EASTERN WEST VIRGINIA PANHANDLE

CITY           SKY/WX    TMP DP  RH WIND       PRES   REMARKS
MARTINSBURG    FAIR      57  41  55 S5        29.93S
PETERSBURG*    FAIR      57  38  48 S3        29.90F

$$

VAZ036>039-050-230300-
CENTRAL FOOTHILLS

CITY           SKY/WX    TMP DP  RH WIND       PRES   REMARKS
CHARLOTTESVILL FAIR      57  42  57 S13       29.98S
CULPEPER*      FAIR      47  38  71 CALM      30.00R
ORANGE*        FAIR      55  41  58 CALM      29.98S
GORDONSVILLE*  FAIR      55  44  65 S8        29.99R
WARRENTON*     FAIR      57  40  52 S5        29.98S

$$

VAZ055>057-230300-
NORTH AND CENTRAL PIEDMONT

CITY           SKY/WX    TMP DP  RH WIND       PRES   REMARKS
FREDERICKSBRG* FAIR      58  45  63 S10       29.98S
STAFFORD*      FAIR      56  44  62 S3        30.03S

$$

NCZ024-NYZ072-PAZ021-071-VAZ022-071-230300-
OTHER REGIONAL OBSERVATIONS

CITY           SKY/WX    TMP DP  RH WIND       PRES   REMARKS
NEW YORK CITY  CLOUDY    39  37  92 E6        30.14F FOG     WCI  35
PHILADELPHIA   CLOUDY    47  39  74 E8        30.04F
PITTSBURGH     LGT RAIN  55  44  66 SE9       29.75F
ROANOKE        LGT RAIN  56  42  59 E9        29.98F
RICHMOND       CLOUDY    53  45  74 S9        30.02F
RALEIGH        MOCLDY    56  48  74 S10       30.04S

$$

ANZ530>537-230300-
MARINE OBSERVATIONS

STATION/POSITION TIME  TEMP    WIND        PRES
                       AIR SEA DIR/SP/G
                 (UTC) (F)     (DEG/KT/KT) (MB)
THOMAS PT LIGHT  0200   39 34  150/  7/  9   N/A
BALT KEY BRIDGE  0142   51     150/ 13/ 15 1015.8F
COVE POINT       0142   40     180/ 14/ 16 1017.4F
LEWISETTA        0142   53 38  190/  7/  9 1016.5F
SOLOMONS ISLAND  0142   40 35   80/  7/  7 1016.5F
PINEY POINT      0142          110/  9/  9   N/A

$$





USA.gov is the U.S. government's official web portal to all federal, state and local government web resources and services.